AT261 Weather Reports


Display with metric or nautical units.
time (UTC)temp
F
wind
direction
speed
MPH
gust
MPH
rain 1hr
in
rain 24hr
in
rain mn
in
humidity
%
barometer
mb
20260502233831 77 213 0.0 2.0 0.00 0.19 0.07 60 1016.3
20260502233332 77 300 0.0 2.0 0.00 0.19 0.07 60 1016.2
20260502232832 77 327 1.0 6.0 0.00 0.19 0.07 60 1016.1
20260502232331 77 297 1.0 6.0 0.00 0.19 0.07 60 1016.1
20260502231832 77 190 0.0 2.0 0.00 0.20 0.07 60 1016.0
20260502231329 77 324 0.0 5.0 0.00 0.26 0.07 60 1015.9
20260502231052 77 122 1.0 5.0 0.00 0.31 0.07 60 1016.0
20260502230555 77 19 1.0 5.0 0.00 0.32 0.07 60 1016.0
20260502225828 77 58 1.0 3.0 0.00 0.33 0.07 60 1016.0
20260502225549 77 257 1.0 3.0 0.00 0.34 0.07 60 1015.9
20260502225049 77 73 1.0 4.0 0.00 0.35 0.07 60 1015.8
20260502224325 77 140 1.0 4.0 0.00 0.36 0.07 60 1015.9
20260502223825 77 0 1.0 5.0 0.00 0.36 0.07 60 1015.8
20260502223325 77 119 1.0 5.0 0.00 0.36 0.07 60 1015.8
20260502222826 77 279 1.0 3.0 0.00 0.36 0.07 60 1015.7
20260502222326 76 292 1.0 3.0 0.00 0.36 0.07 60 1015.7
20260502221826 77 270 1.0 3.0 0.00 0.36 0.07 60 1015.7
20260502221326 77 0 1.0 3.0 0.00 0.36 0.07 60 1015.7
20260502220826 76 55 1.0 3.0 0.00 0.36 0.07 60 1015.7
20260502220326 77 121 0.0 4.0 0.00 0.36 0.07 60 1015.6
20260502215823 76 129 1.0 5.0 0.00 0.36 0.07 60 1015.6
20260502215323 76 278 1.0 5.0 0.00 0.37 0.07 60 1015.6
20260502214824 76 155 1.0 3.0 0.00 0.38 0.07 60 1015.6
20260502214324 76 212 1.0 3.0 0.00 0.40 0.07 60 1015.6
20260502213824 76 253 1.0 4.0 0.00 0.43 0.07 60 1015.6
20260502213324 76 264 1.0 4.0 0.00 0.50 0.07 60 1015.5
20260502212825 76 281 1.0 6.0 0.00 0.62 0.07 60 1015.5
20260502212324 76 250 1.0 6.0 0.00 0.67 0.07 61 1015.6
20260502211824 76 179 2.0 6.0 0.00 0.68 0.07 60 1015.5
20260502211325 76 26 1.0 6.0 0.00 0.68 0.07 60 1015.5
20260502210825 76 211 1.0 5.0 0.00 0.68 0.07 60 1015.5
20260502210325 76 115 2.0 5.0 0.00 0.68 0.07 60 1015.5
20260502205824 76 308 1.0 4.0 0.00 0.69 0.07 60 1015.5
20260502205322 76 14 1.0 4.0 0.00 0.69 0.07 60 1015.6
20260502204821 76 0 1.0 3.0 0.00 0.69 0.07 60 1015.7
20260502204321 76 0 1.0 4.0 0.00 0.69 0.07 60 1015.7
20260502203819 76 258 1.0 4.0 0.00 0.70 0.07 60 1015.6
20260502203315 76 259 1.0 4.0 0.00 0.78 0.07 60 1015.7
20260502203041 76 184 1.0 4.0 0.00 0.91 0.07 60 1015.8
20260502202316 76 347 1.0 5.0 0.00 0.98 0.07 60 1015.9
20260502201816 76 115 1.0 5.0 0.00 1.03 0.07 60 1015.9
20260502201316 76 189 1.0 5.0 0.00 1.09 0.07 60 1015.8
20260502200817 76 58 1.0 3.0 0.00 1.12 0.07 60 1015.9
20260502200316 76 235 1.0 3.0 0.00 1.13 0.07 60 1016.0
20260502195816 75 83 1.0 3.0 0.00 1.15 0.07 60 1016.0
20260502195317 75 143 1.0 4.0 0.00 1.17 0.07 60 1016.1
20260502194816 75 260 1.0 5.0 0.00 1.17 0.07 60 1016.0
20260502194314 75 98 1.0 5.0 0.00 1.19 0.07 60 1016.0
20260502194033 75 176 1.0 4.0 0.00 1.20 0.07 60 1016.1
20260502193311 75 281 1.0 4.0 0.00 1.27 0.07 60 1016.1
20260502192811 75 249 1.0 5.0 0.00 1.31 0.07 60 1016.1
20260502192307 75 250 1.0 5.0 0.00 1.37 0.07 60 1016.2
20260502191810 75 277 1.0 4.0 0.00 1.49 0.07 60 1016.1
20260502191310 75 253 1.0 4.0 0.00 1.64 0.07 60 1016.2
20260502190809 75 255 1.0 4.0 0.00 1.70 0.07 60 1016.1
20260502190310 75 3 1.0 4.0 0.00 1.72 0.07 60 1016.1
20260502190033 75 351 1.0 4.0 0.00 1.74 0.07 60 1016.1
20260502185310 75 341 1.0 4.0 0.00 1.75 0.07 60 1016.0
20260502184810 75 103 1.0 5.0 0.00 1.76 0.07 60 1016.0
20260502184310 75 187 1.0 5.0 0.00 1.76 0.07 60 1016.0
20260502183810 75 242 1.0 3.0 0.00 1.77 0.07 60 1016.0
20260502183309 75 259 1.0 6.0 0.00 1.78 0.07 60 1016.0
20260502182810 74 261 1.0 6.0 0.00 1.78 0.07 59 1016.0
20260502182026 75 127 1.0 4.0 0.00 1.80 0.07 59 1016.2
20260502181531 74 114 1.0 4.0 0.00 1.80 0.07 59 1016.2
20260502181032 74 349 1.0 4.0 0.00 1.80 0.07 59 1016.3
20260502180528 74 286 1.0 4.0 0.00 1.81 0.07 59 1016.1
20260502170301 74 141 1.0 4.0 0.00 1.81 0.07 59 1016.8
20260502163018 74 162 1.0 5.0 0.00 1.81 0.07 59 1017.1
20260502162304 74 241 1.0 4.0 0.00 1.81 0.07 59 1017.0
20260502161801 74 279 1.0 4.0 0.00 1.81 0.07 58 1017.1
20260502161258 74 305 1.0 4.0 0.00 1.81 0.07 59 1017.1
20260502160759 74 300 1.0 6.0 0.00 1.81 0.07 58 1017.1
20260502160258 74 25 1.0 6.0 0.00 1.81 0.07 58 1017.1
20260502152256 74 296 1.0 3.0 0.00 1.81 0.07 58 1017.0
20260502151758 74 307 1.0 3.0 0.00 1.81 0.07 58 1017.0
20260502151521 74 270 1.0 3.0 0.00 1.81 0.07 58 1017.0
20260502150743 74 102 1.0 3.0 0.00 1.81 0.07 58 1016.9
20260502150241 74 152 1.0 3.0 0.00 1.81 0.07 58 1016.9
20260502130716 74 149 2.0 3.0 0.00 1.81 0.07 58 1015.2
20260502130436 74 96 2.0 3.0 0.00 1.81 0.07 58 1015.3
20260502123159 74 114 2.0 3.0 0.00 1.81 0.07 58 1015.0
20260502122647 74 106 1.0 3.0 0.00 1.81 0.07 58 1015.0
20260502122145 74 107 2.0 3.0 0.00 1.81 0.07 58 1015.1
20260502121646 74 163 2.0 3.0 0.00 1.81 0.07 58 1015.0
20260502121405 74 113 1.0 2.0 0.00 1.81 0.07 58 1014.8
20260502120907 74 186 2.0 3.0 0.00 1.81 0.07 58 1014.9
20260502120145 74 149 2.0 3.0 0.00 1.81 0.07 58 1014.9
20260502115647 74 100 2.0 3.0 0.00 1.81 0.07 58 1014.7
20260502115146 74 104 2.0 3.0 0.00 1.81 0.07 58 1014.6
20260502114648 74 193 2.0 3.0 0.00 1.81 0.07 58 1014.6
20260502114146 74 90 2.0 3.0 0.00 1.81 0.07 58 1014.7
20260502113646 74 185 2.0 2.0 0.00 1.81 0.07 58 1014.5
20260502113408 74 162 2.0 2.0 0.00 1.81 0.07 58 1014.5
20260502112646 74 112 2.0 3.0 0.00 1.81 0.07 58 1014.3
20260502112145 74 112 2.0 3.0 0.00 1.81 0.07 58 1014.3
20260502111647 74 102 2.0 3.0 0.00 1.81 0.07 58 1014.3
20260502111408 74 148 2.0 3.0 0.00 1.81 0.07 58 1014.2
20260502110646 74 81 2.0 3.0 0.00 1.81 0.07 58 1014.2
20260502110146 74 249 2.0 3.0 0.00 1.81 0.07 58 1014.2
20260502105646 74 154 2.0 3.0 0.00 1.81 0.07 58 1014.1
20260502105146 74 100 2.0 3.0 0.00 1.81 0.07 58 1013.9
20260502104647 74 165 2.0 3.0 0.00 1.81 0.07 58 1013.9
20260502104145 74 197 2.0 3.0 0.00 1.81 0.07 58 1013.9
20260502103908 74 111 2.0 3.0 0.00 1.81 0.07 58 1013.9
20260502103145 74 108 2.0 3.0 0.00 1.81 0.07 58 1013.7
20260502102633 74 177 2.0 3.0 0.00 1.81 0.07 58 1013.7
20260502102131 74 182 2.0 3.0 0.00 1.81 0.07 58 1013.8
20260502101856 74 170 2.0 3.0 0.00 1.81 0.07 58 1013.7
20260502101354 74 132 2.0 3.0 0.00 1.81 0.07 59 1013.6
20260502100632 74 112 2.0 3.0 0.00 1.81 0.07 58 1013.5
20260502100131 74 229 2.0 3.0 0.00 1.81 0.07 59 1013.5
20260502091120 74 155 2.0 5.0 0.00 1.81 0.07 59 1013.2
20260502090621 75 134 2.0 5.0 0.00 1.81 0.07 59 1013.0
20260502090119 74 193 2.0 3.0 0.00 1.81 0.07 59 1013.0
20260502080104 75 118 2.0 4.0 0.03 1.81 0.07 59 1012.1
20260502070553 75 169 2.0 4.0 0.02 1.78 0.04 59 1013.4
20260502070309 75 114 2.0 4.0 0.02 1.78 0.04 59 1013.9
20260502065551 75 163 2.0 4.0 0.02 1.77 0.03 59 1013.8
20260502065312 75 91 2.0 4.0 0.02 1.76 0.02 59 1013.0
20260502064551 75 81 2.0 4.0 0.02 1.76 0.02 59 1013.0
20260502064050 75 92 2.0 4.0 0.02 1.76 0.02 59 1012.4
20260502063552 75 89 2.0 4.0 0.02 1.76 0.02 59 1012.2
20260502063050 75 149 2.0 4.0 0.02 1.76 0.02 59 1012.4
20260502062552 75 4 2.0 4.0 0.02 1.76 0.02 60 1012.4
20260502062051 75 145 2.0 4.0 0.02 1.76 0.02 59 1012.6
20260502061812 75 348 2.0 4.0 0.02 1.76 0.02 59 1012.4
20260502061051 75 72 3.0 4.0 0.02 1.76 0.02 60 1013.6
20260502060552 75 161 2.0 4.0 0.02 1.76 0.02 60 1013.1
20260502060051 75 354 2.0 3.0 0.01 1.75 0.01 60 1013.4
20260502055553 75 144 2.0 4.0 0.00 1.74 0.00 60 1013.4
20260502055036 75 78 2.0 4.0 0.00 1.74 0.00 60 1014.1
20260502054537 75 185 2.0 4.0 0.00 1.74 0.00 60 1013.8
20260502054036 75 108 2.0 4.0 0.00 1.74 0.00 60 1013.8
20260502053537 75 341 2.0 4.0 0.00 1.74 0.00 60 1013.8
20260502053037 75 149 2.0 4.0 0.00 1.74 0.00 60 1013.6
20260502052537 75 77 2.0 4.0 0.00 1.74 0.00 60 1012.9
20260502052036 75 81 2.0 4.0 0.00 1.74 0.00 60 1012.8
20260502051803 75 95 2.0 4.0 0.00 1.74 0.00 60 1012.8
20260502051037 75 141 2.0 4.0 0.00 1.74 0.00 60 1013.0
20260502050803 75 81 2.0 4.0 0.00 1.74 0.00 60 1012.6
20260502050037 75 144 2.0 4.0 0.00 1.74 0.00 60 1013.2
20260502045538 75 343 2.0 4.0 0.00 1.74 1.74 60 1012.7
20260502045037 75 157 2.0 4.0 0.01 1.74 1.74 60 1012.9
20260502044526 75 161 2.0 4.0 0.01 1.74 1.74 60 1012.4
20260502044022 75 336 2.0 4.0 0.01 1.74 1.74 60 1012.7
20260502043524 75 175 2.0 4.0 0.01 1.74 1.74 60 1012.8
20260502043022 75 2 2.0 4.0 0.01 1.74 1.74 60 1012.6
20260502042750 75 346 2.0 4.0 0.01 1.74 1.74 60 1012.1
20260502042022 75 9 2.0 4.0 0.02 1.74 1.74 60 1012.2
20260502041524 75 333 2.0 4.0 0.03 1.74 1.74 60 1012.2
20260502041241 75 102 2.0 4.0 0.03 1.74 1.74 60 1012.0
20260502040800 75 352 2.0 4.0 0.03 1.74 1.74 60 1012.0
20260502040022 75 209 2.0 4.0 0.03 1.74 1.74 60 1012.0
20260502035524 75 176 2.0 3.0 0.05 1.74 1.74 60 1011.9
20260502035020 75 342 2.0 3.0 0.05 1.73 1.73 60 1012.1
20260502034521 75 92 2.0 5.0 0.05 1.73 1.73 60 1012.2
20260502034019 75 161 2.0 5.0 0.05 1.73 1.73 60 1012.3
20260502033741 75 342 2.0 4.0 0.05 1.73 1.73 60 1012.0
20260502033021 75 91 2.0 3.0 0.05 1.73 1.73 60 1012.0
20260502032521 75 349 2.0 4.0 0.04 1.72 1.72 60 1012.1
20260502032021 75 108 2.0 4.0 0.03 1.72 1.72 60 1012.3
20260502031745 75 86 2.0 4.0 0.03 1.71 1.71 60 1012.4
20260502031021 75 337 2.0 4.0 0.03 1.71 1.71 60 1012.4
20260502030746 75 9 2.0 4.0 0.03 1.71 1.71 60 1012.2
20260502030021 75 337 2.0 4.0 0.02 1.71 1.71 60 1012.1
20260502030008 75 346 2.0 5.0 0.01 1.69 1.69 60 1012.3
20260502025012 75 303 2.0 5.0 0.00 1.69 1.69 60 1012.5
20260502024731 76 71 2.0 4.0 0.00 1.69 1.69 60 1012.1
20260502023956 75 68 2.0 4.0 0.00 1.69 1.69 60 1012.1
20260502023459 76 334 2.0 4.0 0.00 1.69 1.69 60 1012.2
20260502022957 76 342 2.0 4.0 0.00 1.69 1.69 60 1011.8
20260502022719 76 335 2.0 3.0 0.00 1.69 1.69 60 1011.4
20260502021957 75 84 2.0 3.0 0.00 1.69 1.69 60 1011.5
20260502021456 76 176 2.0 4.0 0.00 1.69 1.69 60 1011.4
20260502020954 75 335 2.0 4.0 0.00 1.69 1.69 60 1011.3
20260502020501 76 2 2.0 3.0 0.00 1.69 1.69 60 1010.9
20260502015954 76 71 2.0 3.0 0.00 1.69 1.69 60 1011.1
20260502015456 75 350 2.0 4.0 0.00 1.69 1.69 60 1011.4
20260502014954 75 146 2.0 4.0 0.00 1.69 1.69 60 1011.2
20260502014456 76 180 2.0 6.0 0.00 1.69 1.69 60 1011.5
20260502013954 76 75 2.0 6.0 0.00 1.69 1.69 60 1011.6
20260502013456 75 188 2.0 5.0 0.00 1.69 1.69 60 1011.2
20260502012955 76 87 2.0 3.0 0.00 1.69 1.69 60 1011.1
20260502012456 75 86 2.0 4.0 0.00 1.69 1.69 60 1010.6
20260502011954 75 108 2.0 5.0 0.00 1.69 1.69 60 1010.5
20260502011455 76 167 3.0 7.0 0.00 1.69 1.69 60 1010.2
20260502010955 76 213 3.0 7.0 0.00 1.69 1.69 60 1010.1
20260502010716 76 186 2.0 4.0 0.02 1.69 1.69 60 1010.9
20260502005953 76 88 2.0 4.0 0.06 1.69 1.69 60 1010.9
20260502005441 76 77 2.0 4.0 0.06 1.69 1.69 60 1010.7
20260502004938 76 151 2.0 4.0 0.06 1.69 1.69 60 1011.1
20260502004701 75 181 2.0 3.0 0.06 1.69 1.69 61 1011.2
20260502004200 76 162 2.0 3.0 0.06 1.69 1.69 61 1011.4
20260502003441 76 99 2.0 4.0 0.06 1.69 1.69 60 1011.6
20260502002939 76 237 2.0 4.0 0.06 1.69 1.69 61 1011.7
20260502002441 76 110 2.0 4.0 0.06 1.69 1.69 61 1011.6
20260502001939 76 336 2.0 4.0 0.07 1.69 1.69 60 1011.5
20260502001441 76 231 2.0 3.0 0.13 1.69 1.69 61 1011.4
20260502000940 76 350 2.0 3.0 0.16 1.69 1.69 61 1011.3
20260502000659 76 79 2.0 3.0 0.17 1.66 1.66 61 1011.3
20260501235940 76 107 2.0 4.0 0.14 1.62 1.62 61 1011.2
20260501235441 76 0 2.0 4.0 0.15 1.62 1.62 61 1011.2
20260501234924 76 355 2.0 3.0 0.17 1.62 1.62 61 1010.7
20260501234428 76 149 2.0 4.0 0.17 1.62 1.62 61 1010.8
20260501233927 76 103 2.0 4.0 0.17 1.62 1.62 61 1011.0